[[{"header":{"parameterUnit":"m.s-1","parameterCategory":1,"la1":30.2991,"la2":30.254,"lo1":-89.0895,"lo2":-89.0444,"dy":0.0017,"dx":0.0017,"nx":28,"ny":28,"refTime":"2025-04-04T21:00:00:Z","depth":0,"parameterNumber":2,"parameterNumberName":"U-component_of_WINDS"},"data":[0,0,0,0,0,0,0,0,0,0,0,0,0,0,0,0,0,0,0,0,0,0,0,0,0,0,0,0,0,0,0,0,0,0,0,0,0,0,0,0,0,0,0,0,0,0,0,0,0,0,0,0,0,0,0,0,0,0,-5.8701,-5.8701,0,-5.8745,-5.8746,-5.8746,-5.87,-5.8698,-5.8697,-5.8695,-5.874,-5.8743,-5.8746,0,0,0,0,0,0,0,0,0,0,0,0,0,-5.8577,-5.858,-5.8701,-5.8701,-5.8702,-5.8745,-5.8746,-5.8747,-5.8701,-5.8698,-5.8696,-5.8694,-5.8739,-5.8743,-5.8746,0,0,0,0,0,0,0,0,0,0,0,0,0,-5.8627,-5.8581,-5.8701,-5.8684,-5.8683,-5.8745,-5.8746,-5.8747,-5.8701,-5.8698,-5.8696,-5.8693,-5.8738,-5.8742,-5.8747,-5.8827,0,0,-5.876,-5.8762,0,0,0,0,0,0,0,0,-5.8625,-5.8632,-5.8686,-5.8686,-5.8684,-5.8715,-5.8719,-5.8774,-5.8702,-5.8694,-5.8695,-5.8692,-5.8734,-5.8738,-5.8753,-5.8829,-5.8831,-5.876,-5.8763,-5.8765,-5.8766,0,0,0,0,0,0,0,-5.8621,-5.863,-5.8718,-5.8687,-5.8686,-5.8675,-5.8679,-5.8729,-5.8729,-5.8695,-5.8691,-5.8697,-5.8733,-5.8749,-5.8753,-5.8832,-5.876,-5.8764,-5.8767,-5.8768,-5.8978,-5.8981,0,0,0,0,0,0,-5.8619,-5.8627,-5.8717,-5.872,-5.8647,-5.868,-5.8684,-5.8708,-5.8728,-5.8728,-5.87,-5.8695,-5.8743,-5.8748,-5.8755,-5.885,-5.8765,-5.8769,-5.8771,-5.8975,-5.8979,-5.8982,0,0,0,0,0,0,-5.8617,-5.8628,-5.8715,-5.8673,-5.8683,-5.8684,-5.8711,-5.871,-5.8725,-5.8732,-5.8731,-5.8716,-5.8741,-5.8749,-5.881,-5.8851,-5.8771,-5.8775,-5.8972,-5.8976,-5.898,-5.9042,0,0,0,0,0,0,-5.8614,-5.8627,-5.8657,-5.8674,-5.8685,-5.8769,-5.8714,-5.8713,-5.8733,-5.8727,-5.8747,-5.8747,-5.8739,-5.8804,-5.8814,-5.8856,-5.8778,-5.8968,-5.8974,-5.8979,-5.9036,-5.9048,-5.9058,0,0,0,0,0,-5.8609,-5.8672,-5.8659,-5.867,-5.8723,-5.8771,-5.8778,-5.8768,-5.8737,-5.8767,-5.8771,-5.8746,-5.8846,-5.881,-5.8822,-5.8865,-5.8965,-5.8972,-5.8979,-5.9031,-5.9045,-5.9057,0,0,0,0,0,0,-5.866,-5.8674,-5.8659,-5.8729,-5.875,-5.8764,-5.8801,-5.8783,-5.8812,-5.8806,-5.8792,-5.8797,-5.8862,-5.887,-5.883,-5.8945,-5.89,-5.891,-5.8936,-5.895,-5.8961,-5.8956,-5.8782,0,0,0,0,0,-5.8679,-5.8717,-5.8728,-5.8789,-5.88,-5.8799,-5.882,-5.8811,-5.8831,-5.8839,-5.8848,-5.8869,-5.8904,-5.8928,-5.8961,-5.9038,-5.9042,-5.9074,-5.9085,-5.9094,-5.9101,-5.9143,-5.9157,-5.9004,-5.9004,-5.9004,0,0,-5.8719,-5.8732,-5.8757,-5.88,-5.8814,-5.8854,-5.8807,-5.8851,-5.888,-5.8846,-5.8903,-5.8911,-5.8934,-5.9003,-5.9034,-5.9012,-5.9145,-5.9102,-5.9109,-5.9112,-5.9151,-5.9166,-5.9179,-5.9009,-5.9008,-5.9007,0,0,-5.8812,-5.8826,-5.8878,-5.8895,-5.8918,-5.8917,-5.893,-5.8948,-5.8951,-5.901,-5.8985,-5.9021,-5.9083,-5.91,-5.9117,-5.922,-5.9199,-5.9232,-5.9288,-5.9329,-5.9341,-5.9351,-5.9387,-5.9401,-5.924,-5.924,-5.924,0,-5.8859,-5.8918,-5.8908,-5.8954,-5.8974,-5.8946,-5.8999,-5.9016,-5.9048,-5.9063,-5.9038,-5.9117,-5.913,-5.9203,-5.9228,-5.9243,-5.9258,-5.9228,-5.934,-5.935,-5.936,-5.9394,-5.9408,-5.9244,-5.9243,-5.9243,-5.9243,0,-5.8974,-5.9015,-5.9055,-5.9088,-5.9113,-5.9163,-5.916,-5.9187,-5.9177,-5.9179,-5.924,-5.9256,-5.9292,-5.9309,-5.9299,-5.9382,-5.9367,-5.9342,-5.9296,-5.9379,-5.9411,-5.9424,-5.9249,-5.9248,-5.9247,-5.9246,0,0,-5.9096,-5.9125,-5.9139,-5.9155,-5.918,-5.9212,-5.9262,-5.9297,-5.932,-5.9345,-5.9386,-5.9441,-5.9418,-5.9437,-5.943,-5.9466,-5.9547,-5.9436,-5.9436,-5.9455,-5.9638,-5.9656,-5.9671,-5.9534,-5.9536,-5.9538,-5.9636,0,-5.9188,-5.9273,-5.9267,-5.9347,-5.9386,-5.9362,-5.9405,-5.9426,-5.9431,-5.9465,-5.947,-5.9509,-5.9476,-5.9488,-5.9523,-5.9529,-5.9583,-5.9523,-5.9571,-5.9573,-5.9563,-5.9688,-5.9706,-5.9797,-5.9648,-5.9651,-5.9652,0,-5.9307,-5.9336,-5.9421,-5.9441,-5.9457,-5.9496,-5.9529,-5.9563,-5.9586,-5.9587,-5.9611,-5.9598,-5.9648,-5.9605,-5.9674,-5.9633,-5.9654,-5.966,-5.9664,-5.9665,-5.9615,-5.9691,-5.9826,-5.9838,-5.9672,-5.967,-5.9669,0,-5.9386,-5.9447,-5.9505,-5.952,-5.9546,-5.9573,-5.9586,-5.9607,-5.9629,-5.9659,-5.9674,-5.971,-5.9729,-5.9757,-5.9755,-5.9723,-5.9826,-5.9781,-5.9827,-5.9827,-5.9847,-5.9846,-5.9985,-5.9865,-5.9864,-5.9864,-5.9864,0,-5.9488,-5.954,-5.9541,-5.9577,-5.9635,-5.9629,-5.9687,-5.9697,-5.9716,-5.9754,-5.9736,-5.9772,-5.9768,-5.9804,-5.9803,-5.9861,-5.987,-5.9872,-5.9871,-5.9872,-5.9872,-5.9883,-5.9876,-5.9868,-5.9867,-5.9866,-5.9866,0,-5.9585,-5.9588,-5.965,-5.967,-5.9677,-5.9719,-5.9737,-5.9771,-5.9776,-5.9824,-5.9835,-5.9842,-5.9884,-5.9885,-5.9934,-5.9933,-6.0003,-5.9996,-5.9995,-5.9993,-6.0038,-6.0033,-6.0187,-6.0207,-6.0076,-6.0077,-6.0078,0,-5.9649,-5.9688,-5.9714,-5.9738,-5.9752,-5.9791,-5.9815,-5.9812,-5.9837,-5.9868,-5.9899,-5.994,-5.9971,-6.004,-6.005,-6.0087,-6.0079,-6.0131,-6.0085,-6.0085,-6.0078,-6.0075,-6.0079,-6.0139,-6.0141,-6.0142,-6.0143,0,-5.9762,-5.9762,-5.9796,-5.9832,-5.9861,-5.9889,-5.9915,-5.9936,-5.9936,-5.9966,-6.0009,-6.0034,-6.0084,-6.0124,-6.0161,-6.0174,-6.0159,-6.0158,-6.017,-6.0171,-6.0168,-6.0169,-6.0017,-6.0154,-6.0153,-6.0152,-6.0151,-6.0151,-5.9843,-5.9877,-5.9901,-5.994,-5.996,-5.9985,-6.0019,-6.0029,-6.0065,-6.0105,-6.0102,-6.0149,-6.0174,-6.0222,-6.0239,-6.0277,-6.0259,-6.0277,-6.0281,-6.0285,-6.0289,-6.0165,-6.0284,-6.0283,-6.0283,-6.0283,-6.0283,0,-5.9953,-5.9968,-6.0005,-6.0042,-6.0074,-6.0058,-6.0087,-6.0114,-6.0157,-6.0181,-6.0214,-6.0264,-6.0304,-6.0319,-6.0358,-6.0385,-6.0379,-6.0396,-6.0392,-6.0396,-6.0304,-6.0288,-6.04,-6.04,-6.04,-6.04,-6.04,-6.04,-6.0014,-6.0072,-6.0075,-6.0143,-6.0158,-6.0204,-6.0222,-6.0246,-6.0266,-6.0322,-6.0356,-6.0365,-6.0386,-6.0427,-6.0464,-6.0467,-6.0482,-6.0501,-6.0501,-6.0414,-6.0402,-6.0391,-6.0376,-6.0504,-6.0505,-6.0589,-6.059,-6.0591]},{"header":{"parameterUnit":"m.s-1","parameterCategory":1,"la1":30.2991,"la2":30.254,"lo1":-89.0895,"lo2":-89.0444,"dy":0.0017,"dx":0.0017,"nx":28,"ny":28,"refTime":"2025-04-04T21:00:00:Z","depth":0,"parameterNumber":3,"parameterNumberName":"V-component_of_WINDS"},"data":[0,0,0,0,0,0,0,0,0,0,0,0,0,0,0,0,0,0,0,0,0,0,0,0,0,0,0,0,0,0,0,0,0,0,0,0,0,0,0,0,0,0,0,0,0,0,0,0,0,0,0,0,0,0,0,0,0,0,2.9784,2.9785,0,2.9824,2.9825,2.9825,2.9892,2.9893,2.9895,2.9896,2.9935,2.9935,2.9935,0,0,0,0,0,0,0,0,0,0,0,0,0,2.9766,2.9766,2.9784,2.9785,2.9785,2.9824,2.9825,2.9825,2.9892,2.9894,2.9895,2.9896,2.9935,2.9935,2.9935,0,0,0,0,0,0,0,0,0,0,0,0,0,2.9786,2.9766,2.9784,2.9823,2.9827,2.9824,2.9825,2.9825,2.9892,2.9894,2.9895,2.9897,2.9935,2.9935,2.9935,2.9896,0,0,2.9934,2.9934,0,0,0,0,0,0,0,0,2.9785,2.9787,2.9817,2.982,2.9825,2.9855,2.9833,2.9849,2.9891,2.9867,2.9896,2.9898,2.9907,2.9909,2.9912,2.9898,2.99,2.9934,2.9934,2.9934,2.9934,0,0,0,0,0,0,0,2.9784,2.9786,2.98,2.9817,2.9822,2.9839,2.9844,2.9836,2.9876,2.9869,2.9874,2.9878,2.9909,2.9912,2.9914,2.99,2.9934,2.9934,2.9934,2.9934,2.986,2.9858,0,0,0,0,0,0,2.9777,2.9784,2.9799,2.9801,2.9809,2.9838,2.9843,2.9844,2.9876,2.9883,2.9877,2.9881,2.9912,2.9914,2.9915,2.9875,2.9934,2.9934,2.9934,2.9862,2.986,2.9858,0,0,0,0,0,0,2.9776,2.9777,2.9797,2.9794,2.9798,2.9836,2.9836,2.9843,2.9847,2.9882,2.9889,2.9873,2.9913,2.9916,2.9902,2.9878,2.9934,2.9934,2.9864,2.9861,2.9859,2.9793,0,0,0,0,0,0,2.9775,2.9777,2.9762,2.9793,2.9798,2.9782,2.9834,2.9843,2.9846,2.9853,2.988,2.9886,2.9915,2.9901,2.9901,2.9878,2.9933,2.9866,2.9863,2.9859,2.9797,2.9788,2.978,0,0,0,0,0,2.9774,2.9741,2.9761,2.9762,2.978,2.9781,2.9783,2.9818,2.9844,2.983,2.9853,2.9885,2.988,2.9899,2.99,2.9876,2.9868,2.9864,2.986,2.9801,2.979,2.978,0,0,0,0,0,0,2.9704,2.9745,2.9768,2.9744,2.9759,2.9792,2.9775,2.9804,2.9811,2.9817,2.9859,2.9864,2.9845,2.9859,2.988,2.9843,2.9879,2.9875,2.9834,2.9824,2.9816,2.9813,2.9933,0,0,0,0,0,2.9686,2.9683,2.9719,2.9694,2.97,2.9737,2.9738,2.9764,2.978,2.9786,2.9808,2.9822,2.9825,2.9825,2.9828,2.9799,2.9808,2.9784,2.9775,2.9768,2.9764,2.9753,2.9744,2.9844,2.9844,2.9844,0,0,2.9649,2.9671,2.9666,2.9681,2.9695,2.9692,2.9741,2.9734,2.9733,2.9785,2.9774,2.979,2.9809,2.9789,2.978,2.98,2.9738,2.9763,2.9757,2.9757,2.9748,2.9738,2.973,2.9841,2.9842,2.9842,0,0,2.9579,2.9594,2.9577,2.9591,2.9613,2.9637,2.9633,2.9663,2.9676,2.9666,2.9706,2.9704,2.9706,2.9719,2.9725,2.9663,2.9694,2.9663,2.9619,2.9608,2.96,2.9593,2.9573,2.9565,2.9659,2.9659,2.9659,0,2.953,2.9526,2.9564,2.9556,2.9563,2.9611,2.9595,2.9606,2.9627,2.963,2.9652,2.9657,2.9673,2.9657,2.9643,2.9645,2.9643,2.9661,2.9598,2.9591,2.9586,2.9568,2.956,2.9655,2.9655,2.9656,2.9656,0,2.9466,2.9463,2.9446,2.9468,2.9472,2.9459,2.9496,2.9496,2.9521,2.9544,2.9534,2.9555,2.9565,2.9563,2.9587,2.9551,2.9563,2.959,2.9628,2.9572,2.9556,2.9549,2.965,2.9651,2.9652,2.9653,0,0,2.9353,2.9397,2.9391,2.9403,2.9431,2.943,2.942,2.9431,2.9431,2.9444,2.9438,2.944,2.9466,2.9474,2.95,2.9489,2.9442,2.9518,2.952,2.9506,2.9408,2.9389,2.938,2.9462,2.9461,2.946,2.9407,0,2.9292,2.9279,2.9314,2.9292,2.9291,2.9338,2.933,2.9347,2.9368,2.9371,2.9394,2.9395,2.9428,2.9434,2.9426,2.945,2.9424,2.9454,2.9459,2.9458,2.9455,2.9371,2.935,2.9299,2.94,2.9399,2.9399,0,2.9218,2.9229,2.9208,2.9241,2.9241,2.9234,2.9248,2.925,2.927,2.9286,2.9296,2.9327,2.9321,2.9356,2.9349,2.9369,2.9373,2.9385,2.9384,2.9387,2.9426,2.9374,2.9283,2.9277,2.9388,2.9389,2.939,0,2.9141,2.9151,2.9141,2.9149,2.9185,2.9179,2.9194,2.9217,2.9222,2.9234,2.9239,2.9249,2.9255,2.9263,2.9297,2.9319,2.9287,2.9324,2.9301,2.93,2.9294,2.9294,2.9204,2.9292,2.9292,2.9292,2.9292,0,2.907,2.9056,2.9108,2.9101,2.9088,2.9128,2.9113,2.9133,2.9153,2.9152,2.9191,2.9189,2.9233,2.9236,2.9262,2.9254,2.9255,2.9269,2.9277,2.9267,2.9265,2.9271,2.9277,2.929,2.9291,2.9291,2.9291,0,2.8983,2.9017,2.9009,2.9045,2.9054,2.9042,2.9073,2.9069,2.9094,2.9092,2.9094,2.9131,2.9137,2.9171,2.9184,2.9202,2.9185,2.9198,2.9179,2.9184,2.916,2.9163,2.9073,2.9065,2.9155,2.9154,2.9153,0,2.8936,2.8927,2.8963,2.8966,2.8979,2.8982,2.8989,2.9028,2.9033,2.9058,2.9051,2.9061,2.9071,2.9078,2.9106,2.9117,2.9132,2.91,2.9134,2.9126,2.9135,2.9136,2.9137,2.9093,2.9092,2.9091,2.9091,0,2.8851,2.8869,2.8877,2.8891,2.8898,2.8911,2.8926,2.8926,2.897,2.8974,2.8981,2.8989,2.9004,2.9013,2.9029,2.9045,2.9075,2.908,2.9075,2.9066,2.9057,2.9064,2.9162,2.9082,2.9083,2.9083,2.9084,2.9084,2.8785,2.878,2.8805,2.8813,2.8829,2.8843,2.8843,2.8867,2.8874,2.8891,2.8913,2.8918,2.8941,2.8966,2.8979,2.8984,2.9001,2.8994,2.8993,2.8991,2.8987,2.9054,2.8986,2.8987,2.8987,2.8987,2.8987,0,2.8704,2.8723,2.873,2.8752,2.8758,2.8787,2.8806,2.881,2.8814,2.8833,2.8843,2.8852,2.8862,2.8892,2.8905,2.8903,2.8918,2.8906,2.8907,2.8911,2.897,2.8973,2.8894,2.8894,2.8894,2.8894,2.8894,2.8894,2.8663,2.8658,2.8679,2.8682,2.8701,2.8707,2.8716,2.8729,2.8745,2.8754,2.8763,2.8783,2.8807,2.8823,2.8833,2.8842,2.8846,2.8829,2.8843,2.8897,2.8906,2.8915,2.8919,2.8829,2.8829,2.8784,2.8784,2.8783]}]]